TimeEST,TemperatureF,Dew PointF,Humidity,Sea Level PressureIn,VisibilityMPH,Wind Direction,Wind SpeedMPH,Gust SpeedMPH,PrecipitationIn,Events,Conditions,WindDirDegrees,DateUTC
12:15 AM,41.0,41.0,100,30.17,10.0,Calm,Calm,-,N/A,,Overcast,0,2013-12-29 05:15:00
12:35 AM,42.8,42.8,100,30.15,7.0,Calm,Calm,-,N/A,,Overcast,0,2013-12-29 05:35:00
12:55 AM,42.8,42.8,100,30.13,7.0,Calm,Calm,-,N/A,,Overcast,0,2013-12-29 05:55:00
1:15 AM,42.8,42.8,100,30.12,7.0,Calm,Calm,-,N/A,,Overcast,0,2013-12-29 06:15:00
1:35 AM,42.8,42.8,100,30.10,10.0,North,3.5,-,N/A,Rain,Light Rain,10,2013-12-29 06:35:00
1:55 AM,42.8,42.8,100,30.08,10.0,Calm,Calm,-,N/A,Rain,Light Rain,0,2013-12-29 06:55:00
2:15 AM,42.8,42.8,100,30.08,10.0,Calm,Calm,-,N/A,,Overcast,0,2013-12-29 07:15:00
2:35 AM,42.8,42.8,100,30.08,10.0,Calm,Calm,-,N/A,,Light Drizzle,0,2013-12-29 07:35:00
2:55 AM,42.8,42.8,100,30.09,5.0,Calm,Calm,-,0.03,Rain,Rain,0,2013-12-29 07:55:00
3:15 AM,42.8,42.8,100,30.07,7.0,NNE,4.6,-,0.03,Rain,Rain,20,2013-12-29 08:15:00
3:35 AM,41.0,41.0,100,30.05,5.0,ENE,5.8,-,0.07,Rain,Rain,60,2013-12-29 08:35:00
3:55 AM,41.0,41.0,100,30.05,5.0,NNE,4.6,-,0.11,Rain,Rain,30,2013-12-29 08:55:00
4:15 AM,41.0,41.0,100,30.04,4.0,NE,4.6,-,0.04,Rain,Rain,40,2013-12-29 09:15:00
4:35 AM,41.0,41.0,100,30.02,4.0,NNE,4.6,-,0.08,Rain,Rain,20,2013-12-29 09:35:00
4:55 AM,41.0,41.0,100,30.01,4.0,NNE,3.5,-,0.11,Rain,Rain,30,2013-12-29 09:55:00
5:15 AM,41.0,41.0,100,30.00,5.0,North,3.5,-,0.03,Rain,Rain,10,2013-12-29 10:15:00
5:35 AM,41.0,41.0,100,29.97,5.0,East,8.1,-,0.06,Rain,Rain,80,2013-12-29 10:35:00
5:55 AM,41.0,41.0,100,29.94,5.0,East,10.4,-,0.09,Rain,Rain,90,2013-12-29 10:55:00
6:15 AM,41.0,41.0,100,29.93,7.0,East,8.1,-,0.01,Rain,Rain,90,2013-12-29 11:15:00
6:35 AM,41.0,41.0,100,29.92,7.0,ESE,5.8,-,0.03,Rain,Light Rain,110,2013-12-29 11:35:00
6:55 AM,41.0,41.0,100,29.89,10.0,East,6.9,-,0.04,Rain,Light Rain,100,2013-12-29 11:55:00
7:15 AM,42.8,42.8,100,29.88,10.0,East,4.6,-,N/A,Rain,Rain,100,2013-12-29 12:15:00
7:35 AM,42.8,42.8,100,29.85,7.0,East,4.6,-,0.03,Rain,Rain,100,2013-12-29 12:35:00
7:55 AM,42.8,42.8,100,29.84,7.0,ESE,6.9,-,0.07,Rain,Heavy Rain,120,2013-12-29 12:55:00
8:15 AM,44.6,44.6,100,29.82,7.0,ESE,6.9,-,0.02,Rain,Heavy Rain,120,2013-12-29 13:15:00
8:35 AM,44.6,44.6,100,29.80,5.0,ESE,6.9,-,0.07,Rain,Rain,120,2013-12-29 13:35:00
8:55 AM,46.4,46.4,100,29.80,3.0,SE,4.6,-,0.17,Rain,Heavy Rain,140,2013-12-29 13:55:00
9:15 AM,46.4,46.4,100,29.78,10.0,SE,4.6,-,0.02,Rain,Light Rain,140,2013-12-29 14:15:00
9:35 AM,48.2,48.2,100,29.77,2.5,South,4.6,-,0.10,Rain,Rain,170,2013-12-29 14:35:00
9:55 AM,50.0,50.0,100,29.74,3.0,Calm,Calm,-,0.15,Rain,Heavy Rain,0,2013-12-29 14:55:00
10:15 AM,50.0,50.0,100,29.78,1.2,West,9.2,23.0,0.12,Rain,Heavy Rain,270,2013-12-29 15:15:00
10:35 AM,50.0,50.0,100,29.76,0.8,West,3.5,-,0.27,Rain,Heavy Rain,280,2013-12-29 15:35:00
10:55 AM,46.4,46.4,100,29.78,3.0,WNW,11.5,18.4,0.32,Rain,Light Rain,300,2013-12-29 15:55:00
11:15 AM,42.8,42.8,100,29.78,3.0,WNW,8.1,17.3,0.01,Rain,Light Rain,300,2013-12-29 16:15:00
11:35 AM,42.8,42.8,100,29.77,7.0,NW,4.6,-,0.02,,Light Drizzle,310,2013-12-29 16:35:00
11:37 AM,44.6,44.6,100,29.76,7.0,NW,4.6,-,0.02,,Overcast,320,2013-12-29 16:37:00
11:55 AM,42.8,42.8,100,29.74,10.0,Calm,Calm,-,0.02,,Overcast,0,2013-12-29 16:55:00
12:15 PM,44.6,44.6,100,29.74,10.0,WNW,4.6,-,N/A,,Overcast,300,2013-12-29 17:15:00
12:35 PM,44.6,44.6,100,29.75,10.0,WNW,5.8,-,N/A,,Overcast,290,2013-12-29 17:35:00
12:55 PM,44.6,44.6,100,29.74,10.0,West,4.6,-,N/A,,Overcast,260,2013-12-29 17:55:00
1:15 PM,46.4,46.4,100,29.74,10.0,WSW,6.9,-,N/A,,Overcast,250,2013-12-29 18:15:00
1:35 PM,46.4,46.4,100,29.73,10.0,West,3.5,-,N/A,,Overcast,270,2013-12-29 18:35:00
1:55 PM,50.0,46.4,87,29.73,10.0,West,9.2,-,N/A,,Overcast,270,2013-12-29 18:55:00
2:15 PM,50.0,46.4,87,29.72,10.0,WSW,6.9,-,N/A,,Mostly Cloudy,250,2013-12-29 19:15:00
2:35 PM,51.8,46.4,82,29.73,10.0,WSW,8.1,-,N/A,,Mostly Cloudy,250,2013-12-29 19:35:00
2:55 PM,51.8,48.2,88,29.74,10.0,WSW,9.2,-,N/A,,Mostly Cloudy,250,2013-12-29 19:55:00
3:15 PM,53.6,46.4,77,29.74,10.0,West,6.9,-,N/A,,Scattered Clouds,260,2013-12-29 20:15:00
3:35 PM,53.6,46.4,77,29.75,10.0,WSW,8.1,-,N/A,,Scattered Clouds,250,2013-12-29 20:35:00
3:55 PM,53.6,46.4,77,29.76,10.0,WSW,8.1,-,N/A,,Scattered Clouds,250,2013-12-29 20:55:00
4:15 PM,53.6,46.4,77,29.76,10.0,Calm,Calm,-,N/A,,Clear,0,2013-12-29 21:15:00
4:35 PM,53.6,46.4,77,29.76,10.0,WSW,4.6,-,N/A,,Clear,250,2013-12-29 21:35:00
4:55 PM,51.8,46.4,82,29.77,10.0,WSW,5.8,-,N/A,,Clear,240,2013-12-29 21:55:00
5:15 PM,51.8,46.4,82,29.78,10.0,WSW,4.6,-,N/A,,Clear,240,2013-12-29 22:15:00
5:35 PM,50.0,46.4,87,29.80,10.0,West,3.5,-,N/A,,Clear,260,2013-12-29 22:35:00
5:55 PM,50.0,46.4,87,29.81,10.0,West,4.6,-,N/A,,Scattered Clouds,270,2013-12-29 22:55:00
6:15 PM,50.0,46.4,87,29.82,10.0,West,3.5,-,N/A,,Scattered Clouds,280,2013-12-29 23:15:00
6:35 PM,50.0,44.6,82,29.84,10.0,West,4.6,-,N/A,,Scattered Clouds,280,2013-12-29 23:35:00
6:55 PM,50.0,42.8,76,29.84,10.0,West,5.8,-,N/A,,Clear,270,2013-12-29 23:55:00
7:15 PM,50.0,42.8,76,29.85,10.0,West,3.5,-,N/A,,Clear,260,2013-12-30 00:15:00
7:35 PM,50.0,41.0,71,29.86,10.0,West,3.5,-,N/A,,Clear,260,2013-12-30 00:35:00
7:55 PM,48.2,41.0,76,29.87,10.0,Calm,Calm,-,N/A,,Clear,0,2013-12-30 00:55:00
8:15 PM,48.2,41.0,76,29.88,10.0,WSW,3.5,-,N/A,,Clear,250,2013-12-30 01:15:00
8:35 PM,46.4,41.0,81,29.89,10.0,Calm,Calm,-,N/A,,Clear,0,2013-12-30 01:35:00
8:55 PM,44.6,39.2,81,29.89,10.0,Calm,Calm,-,N/A,,Clear,0,2013-12-30 01:55:00
9:15 PM,46.4,41.0,81,29.90,10.0,Calm,Calm,-,N/A,,Clear,0,2013-12-30 02:15:00
9:35 PM,42.8,37.4,81,29.91,10.0,Calm,Calm,-,N/A,,Clear,0,2013-12-30 02:35:00
9:55 PM,41.0,37.4,87,29.91,10.0,SW,3.5,-,N/A,,Clear,220,2013-12-30 02:55:00
10:15 PM,39.2,39.2,100,29.92,10.0,Calm,Calm,-,N/A,,Clear,0,2013-12-30 03:15:00
10:35 PM,37.4,37.4,100,29.92,10.0,Calm,Calm,-,N/A,,Clear,0,2013-12-30 03:35:00
10:55 PM,37.4,37.4,100,29.93,10.0,Calm,Calm,-,N/A,,Clear,0,2013-12-30 03:55:00
11:15 PM,35.6,35.6,100,29.94,10.0,Calm,Calm,-,N/A,,Clear,0,2013-12-30 04:15:00
11:35 PM,37.4,37.4,100,29.94,10.0,Calm,Calm,-,N/A,,Clear,0,2013-12-30 04:35:00
11:55 PM,37.4,37.4,100,29.94,10.0,Calm,Calm,-,N/A,,Clear,0,2013-12-30 04:55:00